Location: *
(34.6903°N, 135.5184°E)
Time: 09:50:01
(UTC+00:00)

SeaSat 1 - Pass Details

Date: 22 September 2019
Orbit: 745 x 747 km, 108.0° (Epoch: 19 October)

Event Time Altitude Azimuth Distance (km) Brightness Sun altitude
Rises 19:16:42 0° 19° (NNE) 3,196 6.2 -19.0°
Reaches altitude 10° 19:19:00 10° 15° (NNE) 2,268 5.3 -18.6°
Maximum altitude 19:23:48 55° 298° (WNW) 893 2.5 -17.6°
Enters shadow 19:26:26 26° 231° (SW) 1,445 3.4 -17.1°
